SYRACUSE 3B

Last updated on Jan. 22, 2021, 6:26 a.m. UTC

1 29273U 06033B   21021.77115598 -.00000033  00000-0  00000-0 0  9991
2 29273   0.0228 109.1795 0003768 188.5339  96.0237  1.00271913 52929
UTC
Height (km)
Latitude
Longitude
Inclination
Orbital Period
UTC large
Height (km)
Speed (km/s)
/
Latitude / Longitude
Inclination (degrees)
Orbital Period (minutes)
Azimuth
Elevation
Range (km)
Doppler Factor
iOS Compass Heading
iOS Angle

Next 30 passes for location: Hong Kong

Rise time Rise Azimuth (degrees) Set time Set Azimuth (degrees) Duration Max altitude (degrees)

No matching passes for this satellites